�v������,���r���O(���x),�����t���O,���r���O(���x),�����t���O,��1(���x),�����t���O,��2���x),�����t���O,�������x,�����t���O
5/1/2004 0:00,25.1,1,49.9,1,25.3,1,25.7,1,16.8,1
5/1/2004 0:00,25,1,49.9,1,25.3,1,25.7,1,17,1
5/1/2004 0:15,25.1,1,49.8,1,25.3,1,25.7,1,17.1,1
5/1/2004 0:30,25.1,1,49.8,1,25.3,1,25.6,1,17.2,1
5/1/2004 0:45,25,1,50.4,1,25.2,1,25.6,1,16.7,1
5/1/2004 1:00,25,1,50.6,1,25.2,1,25.6,1,16.6,1
5/1/2004 1:15,24.9,1,50.4,1,25.1,1,25.5,1,16.8,1
5/1/2004 1:30,24.9,1,50.3,1,25,1,25.5,1,16.9,1
5/1/2004 1:45,24.8,1,50.3,1,24.9,1,25.5,1,17.1,1
5/1/2004 2:00,24.7,1,50.3,1,24.9,1,25.5,1,17.5,1
5/1/2004 2:15,24.6,1,50.4,1,24.8,1,25.5,1,17.7,1
5/1/2004 2:30,24.6,1,50.4,1,24.7,1,25.4,1,17.7,1
5/1/2004 2:45,24.5,1,50.4,1,24.7,1,25.4,1,17.9,1
5/1/2004 3:00,24.4,1,50.4,1,24.6,1,25.4,1,17.9,1
5/1/2004 3:15,24.4,1,50.5,1,24.5,1,25.4,1,18.1,1
5/1/2004 3:30,24.3,1,50.7,1,24.5,1,25.3,1,18.2,1
5/1/2004 3:45,24.2,1,50.7,1,24.4,1,25.3,1,18.3,1
5/1/2004 4:00,24.2,1,50.7,1,24.4,1,25.2,1,18.4,1
5/1/2004 4:15,24.2,1,50.7,1,24.4,1,25.2,1,18.4,1
5/1/2004 4:30,24.1,1,50.8,1,24.3,1,25.2,1,18.5,1
5/1/2004 4:45,24.1,1,50.8,1,24.3,1,25.1,1,18.6,1
5/1/2004 5:00,24,1,50.9,1,24.2,1,25.1,1,18.7,1
5/1/2004 5:15,23.9,1,51.1,1,24.2,1,25,1,18.8,1
5/1/2004 5:30,23.9,1,51.1,1,24.2,1,25,1,18.9,1
5/1/2004 5:45,23.8,1,51.3,1,24.1,1,25,1,18.9,1
5/1/2004 6:00,23.8,1,51.3,1,24.1,1,24.9,1,19,1
5/1/2004 6:15,23.8,1,51.6,1,24.1,1,24.9,1,19.1,1
5/1/2004 6:30,23.8,1,51.6,1,24,1,24.9,1,19.1,1
5/1/2004 6:45,23.8,1,51.4,1,24,1,24.8,1,19.2,1
5/1/2004 7:00,23.8,1,51.6,1,24,1,24.8,1,19.3,1
5/1/2004 7:15,23.8,1,51.4,1,24,1,24.8,1,19.4,1
5/1/2004 7:30,23.9,1,51.4,1,24,1,24.8,1,17.1,1
5/1/2004 7:45,23.9,1,51.4,1,24.1,1,24.9,1,17.2,1
5/1/2004 8:00,24,1,51.3,1,24.1,1,24.9,1,17.3,1
5/1/2004 8:15,24.1,1,51.4,1,24.2,1,25,1,17.6,1
5/1/2004 8:30,24.1,1,51.3,1,24.2,1,25,1,17.9,1
5/1/2004 8:45,24.2,1,51.3,1,24.2,1,25.1,1,18,1
5/1/2004 9:00,24.2,1,50.9,1,24.3,1,25.2,1,18.1,1
5/1/2004 9:15,24.3,1,51.4,1,24.3,1,25.4,1,17.6,1
5/1/2004 9:30,24.4,1,51.7,1,24.4,1,25.5,1,16.5,1
5/1/2004 9:45,24.7,1,51.7,1,24.6,1,25.6,1,16.6,1
5/1/2004 10:00,24.9,1,52.1,1,24.8,1,25.7,1,16.7,1
5/1/2004 10:15,25,1,51.5,1,25,1,25.8,1,16.8,1
5/1/2004 10:30,25.1,1,51.4,1,25.1,1,25.9,1,16.9,1
5/1/2004 10:45,25.2,1,51.4,1,25.1,1,26,1,16.8,1
5/1/2004 11:00,25.3,1,51.3,1,25.2,1,26.1,1,16.9,1
5/1/2004 11:15,25.4,1,51.1,1,25.2,1,26.2,1,16.7,1
5/1/2004 11:30,25.4,1,50.8,1,25.3,1,26.3,1,16.8,1
5/1/2004 11:45,25.5,1,50.4,1,25.4,1,26.4,1,17.2,1
5/1/2004 12:00,25.6,1,49,1,25.5,1,26.4,1,17.5,1
5/1/2004 12:15,25.6,1,49.8,1,25.6,1,26.5,1,17.6,1
5/1/2004 12:30,25.8,1,50.1,1,25.6,1,26.6,1,17.7,1
5/1/2004 12:45,25.7,1,49.6,1,25.6,1,26.7,1,17,1
5/1/2004 13:00,25.7,1,49.4,1,25.6,1,26.8,1,17.1,1
5/1/2004 13:15,25.7,1,49.5,1,25.6,1,26.9,1,17.2,1
5/1/2004 13:30,25.7,1,49.6,1,25.6,1,27,1,17.3,1
5/1/2004 13:45,25.7,1,49.4,1,25.6,1,27.1,1,17.5,1
5/1/2004 14:00,25.6,1,49.3,1,25.6,1,27.2,1,17.8,1
5/1/2004 14:15,25.6,1,49.4,1,25.6,1,27.3,1,18,1
5/1/2004 14:30,25.6,1,49.6,1,25.6,1,27.4,1,18.1,1
5/1/2004 14:45,25.6,1,49.2,1,25.6,1,27.5,1,18.2,1
5/1/2004 15:00,25.6,1,49.3,1,25.6,1,27.6,1,18.3,1
5/1/2004 15:15,25.6,1,49.3,1,25.6,1,27.7,1,18.4,1
5/1/2004 15:30,25.6,1,49.4,1,25.5,1,27.7,1,18.5,1
5/1/2004 15:45,25.5,1,49.4,1,25.5,1,27.8,1,18.6,1
5/1/2004 16:00,25.4,1,49.7,1,25.5,1,27.8,1,18.7,1
5/1/2004 16:15,25.4,1,49.6,1,25.4,1,27.8,1,18.8,1
5/1/2004 16:30,25.3,1,49.8,1,25.4,1,27.8,1,18.9,1
5/1/2004 16:45,25.2,1,49.9,1,25.4,1,27.7,1,18.9,1
5/1/2004 17:00,25.2,1,50,1,25.3,1,27.7,1,19,1
5/1/2004 17:15,25.1,1,50.1,1,25.3,1,27.6,1,19.1,1
5/1/2004 17:30,25,1,50.4,1,25.2,1,27.6,1,19.2,1
5/1/2004 17:45,24.9,1,50.4,1,25.2,1,27.5,1,19.3,1
5/1/2004 18:00,24.8,1,50.7,1,25.1,1,27.4,1,19.4,1
5/1/2004 18:15,24.7,1,50.9,1,25,1,27.3,1,19.5,1
5/1/2004 18:30,24.6,1,50.7,1,24.9,1,27.2,1,19.5,1
5/1/2004 18:45,24.5,1,50.9,1,24.9,1,27.2,1,19.6,1
5/1/2004 19:00,24.5,1,51.2,1,24.8,1,27,1,17.1,1
5/1/2004 19:15,24.5,1,50.7,1,24.8,1,26.9,1,17.2,1
5/1/2004 19:30,24.4,1,49.9,1,24.8,1,26.8,1,17.3,1
5/1/2004 19:45,24.6,1,50.6,1,24.9,1,26.7,1,17.6,1
5/1/2004 20:00,24.6,1,50.7,1,24.9,1,26.6,1,17.9,1
5/1/2004 20:15,24.6,1,51.4,1,24.9,1,26.5,1,17,1
5/1/2004 20:30,24.5,1,51.5,1,24.9,1,26.4,1,16.2,1
5/1/2004 20:45,24.5,1,52.4,1,24.8,1,26.3,1,16.3,1
5/1/2004 21:00,24.4,1,51.5,1,24.8,1,26.2,1,16.9,1
5/1/2004 21:15,24.4,1,52.1,1,24.8,1,26.2,1,17,1
5/1/2004 21:30,24.3,1,52.5,1,24.7,1,26.1,1,17.1,1
5/1/2004 21:45,24.3,1,52.4,1,24.7,1,26,1,17.2,1
5/1/2004 22:00,24.2,1,52.4,1,24.7,1,25.9,1,17.5,1
5/1/2004 22:15,24.2,1,52.1,1,24.7,1,25.9,1,17.7,1
5/1/2004 22:30,24.2,1,53.6,1,24.7,1,25.8,1,17.8,1
5/1/2004 22:45,24.2,1,53.4,1,24.7,1,25.7,1,17.9,1
5/1/2004 23:00,24.2,1,53,1,24.6,1,25.6,1,18,1
5/1/2004 23:15,24.2,1,53.8,1,24.5,1,25.6,1,18.1,1
5/1/2004 23:30,24.1,1,53,1,24.5,1,25.5,1,18.1,1
5/1/2004 23:45,24,1,52.3,1,24.5,1,25.4,1,17.6,1
5/2/2004 0:00,23.8,1,52.3,1,24.4,1,25.3,1,17.7,1
5/2/2004 0:15,23.7,1,52.5,1,24.2,1,25.3,1,17.8,1
5/2/2004 0:30,23.5,1,52.4,1,24.1,1,25.2,1,17.9,1
5/2/2004 0:45,23.4,1,52.2,1,24,1,25.1,1,18.2,1
5/2/2004 1:00,23.3,1,52.1,1,23.9,1,25,1,18.4,1
5/2/2004 1:15,23.1,1,52.2,1,23.8,1,25,1,18.4,1
5/2/2004 1:30,23,1,52.1,1,23.7,1,24.9,1,18.5,1
5/2/2004 1:45,22.9,1,51.8,1,23.6,1,24.9,1,18.6,1
5/2/2004 2:00,22.8,1,52,1,23.5,1,24.8,1,18.7,1
5/2/2004 2:15,22.7,1,51.8,1,23.4,1,24.7,1,18.8,1
5/2/2004 2:30,22.6,1,51.7,1,23.4,1,24.7,1,18.8,1
5/2/2004 2:45,22.6,1,51.6,1,23.3,1,24.6,1,18.9,1
5/2/2004 3:00,22.5,1,51.5,1,23.2,1,24.5,1,18.9,1
5/2/2004 3:15,22.3,1,51.6,1,23.1,1,24.4,1,19,1
5/2/2004 3:30,22.3,1,50.8,1,23,1,24.3,1,19.1,1
5/2/2004 3:45,22.2,1,50.9,1,22.9,1,24.2,1,19.1,1
5/2/2004 4:00,22.1,1,50.9,1,22.9,1,24.1,1,19.2,1
5/2/2004 4:15,22.1,1,50.8,1,22.8,1,24,1,19.3,1
5/2/2004 4:30,22,1,50.5,1,22.7,1,23.9,1,19.3,1
5/2/2004 4:45,21.9,1,50.8,1,22.7,1,23.8,1,19.4,1
5/2/2004 5:00,21.8,1,50.6,1,22.6,1,23.7,1,19.4,1
5/2/2004 5:15,21.7,1,50.8,1,22.5,1,23.7,1,19.5,1
5/2/2004 5:30,21.7,1,50.8,1,22.4,1,23.6,1,19.5,1
5/2/2004 5:45,21.6,1,51,1,22.4,1,23.5,1,19.5,1
5/2/2004 6:00,21.5,1,51,1,22.3,1,23.4,1,19.6,1
5/2/2004 6:15,21.5,1,50.8,1,22.2,1,23.4,1,19.6,1
5/2/2004 6:30,21.4,1,50.8,1,22.2,1,23.3,1,19.7,1
5/2/2004 6:45,21.4,1,50.7,1,22.1,1,23.2,1,19.7,1
5/2/2004 7:00,21.3,1,50.8,1,22,1,23.2,1,19.8,1
5/2/2004 7:15,21.3,1,50.6,1,22,1,23.1,1,19.8,1
5/2/2004 7:30,21.3,1,50.6,1,21.9,1,23.1,1,19.8,1
5/2/2004 7:45,21.4,1,50.5,1,21.9,1,23,1,18.3,1
5/2/2004 8:00,21.5,1,50.2,1,21.9,1,22.9,1,18.3,1
5/2/2004 8:15,21.7,1,51.7,1,22.1,1,22.9,1,17.5,1
5/2/2004 8:30,21.9,1,51.2,1,22.2,1,22.9,1,16.9,1
5/2/2004 8:45,21.9,1,50.3,1,22.3,1,22.9,1,16.6,1
5/2/2004 9:00,22,1,50,1,22.3,1,22.9,1,16.8,1
5/2/2004 9:15,21.9,1,49,1,22.3,1,22.9,1,16.9,1
5/2/2004 9:30,21.9,1,49.5,1,22.3,1,22.9,1,16.9,1
5/2/2004 9:45,21.9,1,49.4,1,22.3,1,22.9,1,17,1
5/2/2004 10:00,22,1,49.4,1,22.3,1,22.9,1,17.1,1
5/2/2004 10:15,22,1,49.6,1,22.3,1,22.9,1,17.2,1
5/2/2004 10:30,22,1,49.4,1,22.3,1,23,1,17.5,1
5/2/2004 10:45,22.1,1,49.5,1,22.3,1,23,1,17.6,1
5/2/2004 11:00,22.1,1,49.5,1,22.4,1,23.1,1,17.6,1
5/2/2004 11:15,22.1,1,49.2,1,22.4,1,23.2,1,17.7,1
5/2/2004 11:30,22.2,1,49.2,1,22.4,1,23.2,1,17.8,1
5/2/2004 11:45,22.2,1,49.3,1,22.5,1,23.3,1,17.8,1
5/2/2004 12:00,22.3,1,49,1,22.5,1,23.4,1,17.9,1
5/2/2004 12:15,22.3,1,49.1,1,22.5,1,23.4,1,18,1
5/2/2004 12:30,22.3,1,48.9,1,22.5,1,23.5,1,18,1
5/2/2004 12:45,22.4,1,49,1,22.6,1,23.6,1,18.1,1
5/2/2004 13:00,22.4,1,49,1,22.6,1,23.7,1,18.2,1
5/2/2004 13:15,22.4,1,49,1,22.6,1,23.7,1,18.2,1
5/2/2004 13:30,22.4,1,49,1,22.6,1,23.8,1,18.3,1
5/2/2004 13:45,22.5,1,49,1,22.6,1,23.9,1,18.4,1
5/2/2004 14:00,22.5,1,48.9,1,22.7,1,24,1,18.4,1
5/2/2004 14:15,22.5,1,49,1,22.7,1,24,1,18.5,1
5/2/2004 14:30,22.5,1,48.9,1,22.7,1,24.1,1,18.6,1
5/2/2004 14:45,22.5,1,49,1,22.7,1,24.1,1,18.6,1
5/2/2004 15:00,22.5,1,48.9,1,22.7,1,24.2,1,18.7,1
5/2/2004 15:15,22.5,1,49.2,1,22.7,1,24.2,1,18.7,1
5/2/2004 15:30,22.5,1,49.2,1,22.7,1,24.2,1,18.8,1
5/2/2004 15:45,22.5,1,49.3,1,22.7,1,24.2,1,18.8,1
5/2/2004 16:00,22.4,1,49.4,1,22.7,1,24.3,1,18.9,1
5/2/2004 16:15,22.4,1,49.6,1,22.6,1,24.2,1,18.9,1
5/2/2004 16:30,22.4,1,49.9,1,22.6,1,24.2,1,19,1
5/2/2004 16:45,22.3,1,49.7,1,22.6,1,24.2,1,19.1,1
5/2/2004 17:00,22.3,1,49.7,1,22.6,1,24.2,1,19.1,1
5/2/2004 17:15,22.3,1,50,1,22.6,1,24.2,1,19.2,1
5/2/2004 17:30,22.2,1,49.8,1,22.5,1,24.1,1,19.2,1
5/2/2004 17:45,22.1,1,50.1,1,22.5,1,24.1,1,19.2,1
5/2/2004 18:00,22.1,1,50.1,1,22.5,1,24,1,19.3,1
5/2/2004 18:15,22,1,50.1,1,22.4,1,24,1,19.3,1
5/2/2004 18:30,22,1,50.3,1,22.4,1,23.9,1,19.4,1
5/2/2004 18:45,21.9,1,50.2,1,22.3,1,23.9,1,19.4,1
5/2/2004 19:00,21.8,1,50.2,1,22.3,1,23.8,1,19.5,1
5/2/2004 19:15,21.8,1,50.2,1,22.2,1,23.7,1,19.5,1
5/2/2004 19:30,21.8,1,50.3,1,22.2,1,23.7,1,19.5,1
5/2/2004 19:45,21.9,1,50.2,1,22.2,1,23.6,1,17.9,1
5/2/2004 20:00,22,1,52,1,22.3,1,23.5,1,17.5,1
5/2/2004 20:15,22.1,1,51.7,1,22.4,1,23.5,1,17.6,1
5/2/2004 20:30,22.2,1,52.1,1,22.4,1,23.4,1,17.5,1
5/2/2004 20:45,22.2,1,51.4,1,22.4,1,23.4,1,17.3,1
5/2/2004 21:00,22.2,1,51.5,1,22.4,1,23.4,1,17.4,1
5/2/2004 21:15,22.4,1,53.1,1,22.4,1,23.3,1,17.4,1
5/2/2004 21:30,22.7,1,53.3,1,22.6,1,23.3,1,17.4,1
5/2/2004 21:45,22.5,1,54,1,22.6,1,23.3,1,17.4,1
5/2/2004 22:00,22.5,1,52,1,22.6,1,23.3,1,17.4,1
5/2/2004 22:15,22.4,1,52.6,1,22.6,1,23.2,1,17.3,1
5/2/2004 22:30,22.4,1,52.1,1,22.6,1,23.2,1,17.4,1
5/2/2004 22:45,22.4,1,52.3,1,22.6,1,23.2,1,17.4,1
5/2/2004 23:00,22.3,1,52.1,1,22.6,1,23.1,1,17.3,1
5/2/2004 23:15,22.3,1,54.7,1,22.5,1,23.1,1,17.4,1
5/2/2004 23:30,22.3,1,55.9,1,22.5,1,23,1,17.6,1
5/2/2004 23:45,22.2,1,57.4,1,22.4,1,23,1,17.7,1
5/3/2004 0:00,22.1,1,57.8,1,22.3,1,22.9,1,17.7,1
5/3/2004 0:15,22,1,58,1,22.2,1,22.9,1,17.8,1
5/3/2004 0:30,21.9,1,58.6,1,22.1,1,22.9,1,17.9,1
5/3/2004 0:45,21.8,1,59,1,22.1,1,22.8,1,17.9,1
5/3/2004 1:00,21.7,1,59,1,22,1,22.8,1,18,1
5/3/2004 1:15,21.7,1,59.2,1,21.9,1,22.7,1,18.1,1
5/3/2004 1:30,21.6,1,59,1,21.9,1,22.7,1,18.1,1
5/3/2004 1:45,21.5,1,59.1,1,21.8,1,22.6,1,18.2,1
5/3/2004 2:00,21.4,1,59,1,21.8,1,22.6,1,18.3,1
5/3/2004 2:15,21.3,1,59,1,21.7,1,22.6,1,18.3,1
5/3/2004 2:30,21.2,1,58.8,1,21.7,1,22.5,1,18.4,1
5/3/2004 2:45,21.1,1,58.6,1,21.6,1,22.5,1,18.4,1
5/3/2004 3:00,21,1,58.6,1,21.6,1,22.4,1,18.5,1
5/3/2004 3:15,21,1,58.4,1,21.5,1,22.4,1,18.6,1
5/3/2004 3:30,20.9,1,58.2,1,21.5,1,22.3,1,18.6,1
5/3/2004 3:45,20.9,1,58.1,1,21.4,1,22.2,1,18.7,1
5/3/2004 4:00,20.8,1,57.8,1,21.4,1,22.2,1,18.7,1
5/3/2004 4:15,20.8,1,57.6,1,21.3,1,22.1,1,18.8,1
5/3/2004 4:30,20.8,1,57.4,1,21.3,1,22.1,1,18.8,1
5/3/2004 4:45,20.7,1,57.4,1,21.3,1,22,1,18.9,1
5/3/2004 5:00,20.6,1,57.2,1,21.2,1,21.9,1,18.9,1
5/3/2004 5:15,20.6,1,57,1,21.2,1,21.9,1,19,1
5/3/2004 5:30,20.5,1,57,1,21.1,1,21.8,1,19,1
5/3/2004 5:45,20.5,1,56.8,1,21.1,1,21.8,1,19,1
5/3/2004 6:00,20.4,1,56.6,1,21,1,21.7,1,19.1,1
5/3/2004 6:15,20.3,1,56.6,1,21,1,21.6,1,19.1,1
5/3/2004 6:30,20.3,1,56.5,1,20.9,1,21.6,1,19.2,1
5/3/2004 6:45,20.3,1,56.4,1,20.9,1,21.5,1,19.2,1
5/3/2004 7:00,20.2,1,56.3,1,20.9,1,21.5,1,19.2,1
5/3/2004 7:15,20.2,1,56.2,1,20.8,1,21.4,1,19.3,1
5/3/2004 7:30,20.2,1,56.2,1,20.8,1,21.4,1,19.3,1
5/3/2004 7:45,20.2,1,56.2,1,20.8,1,21.3,1,19.3,1
5/3/2004 8:00,20.2,1,56,1,20.7,1,21.3,1,19.4,1
5/3/2004 8:15,20.2,1,55.7,1,20.7,1,21.2,1,19.4,1
5/3/2004 8:30,20.3,1,55.9,1,20.7,1,21.2,1,19.4,1
5/3/2004 8:45,20.3,1,55.7,1,20.8,1,21.1,1,19.4,1
5/3/2004 9:00,20.4,1,55.5,1,20.8,1,21.1,1,19.5,1
5/3/2004 9:15,20.4,1,55.4,1,20.8,1,21.1,1,19.5,1
5/3/2004 9:30,20.4,1,55.2,1,20.8,1,21,1,19.5,1
5/3/2004 9:45,20.4,1,55.3,1,20.9,1,21,1,19.6,1
5/3/2004 10:00,20.5,1,55.3,1,20.9,1,21,1,19.6,1
5/3/2004 10:15,20.7,1,55.2,1,21,1,21,1,19.6,1
5/3/2004 10:30,20.8,1,55,1,21.1,1,21,1,19.6,1
5/3/2004 10:45,20.9,1,55,1,21.2,1,21,1,17.9,1
5/3/2004 11:00,21,1,54.9,1,21.3,1,21,1,18,1
5/3/2004 11:15,21.2,1,54.6,1,21.3,1,21,1,16.8,1
5/3/2004 11:30,21.4,1,54.6,1,21.4,1,21,1,16.8,1
5/3/2004 11:45,21.4,1,54.6,1,21.5,1,21,1,16.6,1
5/3/2004 12:00,21.4,1,54.4,1,21.5,1,21.1,1,16.8,1
5/3/2004 12:15,21.4,1,54.6,1,21.5,1,21.1,1,16.9,1
5/3/2004 12:30,21.4,1,54.4,1,21.5,1,21.1,1,16.9,1
5/3/2004 12:45,21.5,1,54.3,1,21.6,1,21.2,1,17,1
5/3/2004 13:00,21.5,1,54.1,1,21.6,1,21.2,1,16.8,1
5/3/2004 13:15,21.6,1,54.1,1,21.6,1,21.3,1,16.8,1
5/3/2004 13:30,21.7,1,53.9,1,21.7,1,21.3,1,16.9,1
5/3/2004 13:45,21.8,1,55,1,21.8,1,21.4,1,17,1
5/3/2004 14:00,22,1,55.7,1,22,1,21.5,1,17,1
5/3/2004 14:15,22,1,55.4,1,22.1,1,21.6,1,17.1,1
5/3/2004 14:30,22.1,1,55.4,1,22.1,1,21.7,1,17.2,1
5/3/2004 14:45,22.2,1,55,1,22.2,1,21.9,1,17.2,1
5/3/2004 15:00,22.2,1,55,1,22.2,1,22,1,17.3,1
5/3/2004 15:15,22.2,1,55.1,1,22.3,1,22,1,17.4,1
5/3/2004 15:30,22.3,1,55,1,22.3,1,22.1,1,17.2,1
5/3/2004 15:45,22.3,1,55.2,1,22.3,1,22.2,1,17.1,1
5/3/2004 16:00,22.4,1,55.6,1,22.4,1,22.3,1,17.1,1
5/3/2004 16:15,22.3,1,55.4,1,22.4,1,22.4,1,17.2,1
5/3/2004 16:30,22.3,1,55.7,1,22.4,1,22.4,1,17.1,1
5/3/2004 16:45,22.4,1,55.7,1,22.4,1,22.4,1,17.2,1
5/3/2004 17:00,22.4,1,55.9,1,22.5,1,22.4,1,17.3,1
5/3/2004 17:15,22.4,1,55.9,1,22.5,1,22.5,1,17.3,1
5/3/2004 17:30,22.4,1,55.5,1,22.5,1,22.5,1,17.4,1
5/3/2004 17:45,22.5,1,56.7,1,22.6,1,22.5,1,16.9,1
5/3/2004 18:00,22.6,1,57.5,1,22.7,1,22.5,1,17,1
5/3/2004 18:15,22.7,1,56.8,1,22.8,1,22.6,1,17,1
5/3/2004 18:30,22.7,1,56.5,1,22.8,1,22.6,1,17.1,1
5/3/2004 18:45,22.7,1,55.9,1,22.8,1,22.6,1,17.2,1
5/3/2004 19:00,22.7,1,56.2,1,22.9,1,22.6,1,17.6,1
5/3/2004 19:15,22.8,1,56.2,1,22.9,1,22.6,1,17.6,1
5/3/2004 19:30,22.8,1,56.1,1,22.9,1,22.6,1,16.9,1
5/3/2004 19:45,22.9,1,56.1,1,23,1,22.7,1,17,1
5/3/2004 20:00,23,1,56,1,23,1,22.7,1,17.1,1
5/3/2004 20:15,22.9,1,55.6,1,23.1,1,22.7,1,17.1,1
5/3/2004 20:30,22.9,1,55.6,1,23.1,1,22.7,1,17.2,1
5/3/2004 20:45,22.9,1,55.7,1,23.1,1,22.7,1,17.4,1
5/3/2004 21:00,22.9,1,55.6,1,23.1,1,22.7,1,17,1
5/3/2004 21:15,22.9,1,55.4,1,23.1,1,22.7,1,16.8,1
5/3/2004 21:30,22.8,1,55.4,1,23,1,22.6,1,16.8,1
5/3/2004 21:45,22.7,1,55.4,1,22.9,1,22.6,1,16.9,1
5/3/2004 22:00,22.6,1,55.4,1,22.8,1,22.6,1,17,1
5/3/2004 22:15,22.6,1,55.4,1,22.8,1,22.6,1,17.1,1
5/3/2004 22:30,22.7,1,55.9,1,22.8,1,22.6,1,17.1,1
5/3/2004 22:45,22.7,1,56.1,1,22.9,1,22.6,1,17.2,1
5/3/2004 23:00,22.7,1,56.1,1,22.9,1,22.6,1,17.3,1
5/3/2004 23:15,22.8,1,56.1,1,22.9,1,22.6,1,17.4,1
5/3/2004 23:30,22.8,1,56.2,1,23,1,22.6,1,17.5,1
5/3/2004 23:45,22.7,1,55.9,1,23,1,22.6,1,17.6,1
5/4/2004 0:00,22.8,1,55.9,1,23,1,22.6,1,17.7,1
5/4/2004 0:15,22.8,1,55.9,1,23,1,22.6,1,17.7,1
5/4/2004 0:30,22.8,1,55.6,1,23,1,22.6,1,17.8,1
5/4/2004 0:45,22.8,1,55.8,1,23,1,22.6,1,16.9,1
5/4/2004 1:00,22.7,1,55.7,1,22.9,1,22.6,1,16.9,1
5/4/2004 1:15,22.6,1,55.9,1,22.9,1,22.6,1,17,1
5/4/2004 1:30,22.6,1,55.8,1,22.8,1,22.6,1,17.1,1
5/4/2004 1:45,22.5,1,55.9,1,22.8,1,22.6,1,17.2,1
5/4/2004 2:00,22.5,1,56,1,22.7,1,22.6,1,17.3,1
5/4/2004 2:15,22.4,1,55.9,1,22.7,1,22.6,1,17.4,1
5/4/2004 2:30,22.4,1,55.9,1,22.6,1,22.6,1,17.5,1
5/4/2004 2:45,22.4,1,55.9,1,22.6,1,22.6,1,17.5,1
5/4/2004 3:00,22.4,1,55.9,1,22.6,1,22.7,1,17.6,1
5/4/2004 3:15,22.3,1,55.9,1,22.5,1,22.7,1,17.7,1
5/4/2004 3:30,22.3,1,55.9,1,22.5,1,22.7,1,17.8,1
5/4/2004 3:45,22.3,1,56.1,1,22.5,1,22.7,1,17.9,1
5/4/2004 4:00,22.3,1,56.1,1,22.5,1,22.7,1,17.9,1
5/4/2004 4:15,22.3,1,56.1,1,22.4,1,22.7,1,18,1
5/4/2004 4:30,22.3,1,56,1,22.4,1,22.7,1,18.1,1
5/4/2004 4:45,22.2,1,56.2,1,22.4,1,22.7,1,18.2,1
5/4/2004 5:00,22.2,1,56.3,1,22.4,1,22.7,1,18.3,1
5/4/2004 5:15,22.2,1,56.2,1,22.4,1,22.7,1,18.3,1
5/4/2004 5:30,22.2,1,56.4,1,22.4,1,22.7,1,18.4,1
5/4/2004 5:45,22.2,1,56.3,1,22.4,1,22.6,1,18.5,1
5/4/2004 6:00,22.2,1,56.4,1,22.3,1,22.6,1,18.5,1
5/4/2004 6:15,22.2,1,56.4,1,22.3,1,22.6,1,18.6,1
5/4/2004 6:30,22.2,1,56.5,1,22.3,1,22.6,1,18.7,1
5/4/2004 6:45,22.1,1,56.6,1,22.3,1,22.6,1,18.7,1
5/4/2004 7:00,22.1,1,56.9,1,22.3,1,22.6,1,18.8,1
5/4/2004 7:15,22.2,1,56.9,1,22.3,1,22.6,1,18.9,1
5/4/2004 7:30,22.2,1,56.9,1,22.3,1,22.6,1,18.9,1
5/4/2004 7:45,22.2,1,57,1,22.3,1,22.6,1,19,1
5/4/2004 8:00,22.2,1,57,1,22.3,1,22.6,1,19,1
5/4/2004 8:15,22.2,1,57,1,22.3,1,22.6,1,19.1,1
5/4/2004 8:30,22.2,1,56.9,1,22.4,1,22.6,1,19.1,1
5/4/2004 8:45,22.3,1,56.9,1,22.4,1,22.6,1,17.2,1
5/4/2004 9:00,22.4,1,57.1,1,22.4,1,22.7,1,17.3,1
5/4/2004 9:15,22.5,1,56.8,1,22.6,1,22.7,1,17.4,1
5/4/2004 9:30,22.7,1,58.3,1,22.7,1,22.7,1,17.5,1
5/4/2004 9:45,22.8,1,57.4,1,22.8,1,22.7,1,17.1,1
5/4/2004 10:00,22.9,1,57.3,1,22.9,1,22.8,1,17.2,1
5/4/2004 10:15,22.9,1,57.3,1,23,1,22.8,1,17.2,1
5/4/2004 10:30,23,1,57.3,1,23.1,1,22.9,1,17.3,1
5/4/2004 10:45,23.1,1,57,1,23.2,1,22.9,1,17.4,1
5/4/2004 11:00,23.2,1,57,1,23.2,1,22.9,1,17,1
5/4/2004 11:15,23.2,1,57,1,23.3,1,23,1,17,1
5/4/2004 11:30,23.3,1,57.5,1,23.4,1,23.1,1,16.4,1
5/4/2004 11:45,23.4,1,57,1,23.4,1,23.1,1,16.5,1
5/4/2004 12:00,23.4,1,57,1,23.5,1,23.2,1,16.7,1
5/4/2004 12:15,23.5,1,56.7,1,23.5,1,23.3,1,16.8,1
5/4/2004 12:30,23.6,1,56.8,1,23.6,1,23.4,1,16.9,1
5/4/2004 12:45,23.7,1,56.8,1,23.7,1,23.4,1,17,1
5/4/2004 13:00,24,1,59.7,1,23.8,1,23.6,1,17.1,1
5/4/2004 13:15,24.1,1,59.5,1,24,1,23.7,1,17.2,1
5/4/2004 13:30,24.2,1,58.5,1,24.1,1,23.8,1,17.3,1
5/4/2004 13:45,24.2,1,58.3,1,24.2,1,23.9,1,17.1,1
5/4/2004 14:00,24.3,1,58.2,1,24.2,1,24.1,1,16.5,1
5/4/2004 14:15,24.3,1,57.9,1,24.2,1,24.2,1,16.7,1
5/4/2004 14:30,24.3,1,57.7,1,24.3,1,24.3,1,16.8,1
5/4/2004 14:45,24.4,1,57.6,1,24.3,1,24.3,1,16.9,1
5/4/2004 15:00,24.4,1,57.6,1,24.3,1,24.4,1,17,1
5/4/2004 15:15,24.5,1,57.5,1,24.4,1,24.5,1,17.1,1
5/4/2004 15:30,24.5,1,57.5,1,24.4,1,24.5,1,17.2,1
5/4/2004 15:45,24.5,1,57.3,1,24.4,1,24.6,1,17.4,1
5/4/2004 16:00,24.5,1,57.5,1,24.4,1,24.6,1,17.7,1
5/4/2004 16:15,24.5,1,57.3,1,24.4,1,24.6,1,17.5,1
5/4/2004 16:30,24.5,1,57.3,1,24.4,1,24.6,1,17.6,1
5/4/2004 16:45,24.5,1,57.4,1,24.4,1,24.6,1,17.7,1
5/4/2004 17:00,24.5,1,58,1,24.4,1,24.6,1,17.8,1
5/4/2004 17:15,24.5,1,58.2,1,24.5,1,24.6,1,17.8,1
5/4/2004 17:30,24.7,1,57.8,1,24.6,1,24.6,1,18,1
5/4/2004 17:45,24.8,1,58.7,1,24.6,1,24.7,1,18.2,1
5/4/2004 18:00,24.8,1,59.9,1,24.6,1,24.7,1,18.3,1
5/4/2004 18:15,24.7,1,58.8,1,24.7,1,24.7,1,18.4,1
5/4/2004 18:30,24.7,1,58.7,1,24.7,1,24.7,1,17.1,1
5/4/2004 18:45,24.8,1,58.1,1,24.7,1,24.7,1,17.2,1
5/4/2004 19:00,24.7,1,58.2,1,24.7,1,24.7,1,17.3,1
5/4/2004 19:15,24.8,1,57.8,1,24.7,1,24.7,1,17.5,1
5/4/2004 19:30,24.7,1,57.9,1,24.8,1,24.7,1,17.6,1
5/4/2004 19:45,24.7,1,57.8,1,24.8,1,24.7,1,17.7,1
5/4/2004 20:00,24.7,1,57.5,1,24.8,1,24.7,1,17.8,1
5/4/2004 20:15,24.7,1,57.5,1,24.8,1,24.7,1,18,1
5/4/2004 20:30,24.8,1,57.2,1,24.8,1,24.7,1,18,1
5/4/2004 20:45,24.8,1,57.1,1,24.8,1,24.7,1,18.1,1
5/4/2004 21:00,24.7,1,57.1,1,24.8,1,24.7,1,18.3,1
5/4/2004 21:15,24.7,1,56.9,1,24.8,1,24.7,1,18,1
5/4/2004 21:30,24.7,1,57,1,24.7,1,24.7,1,18.1,1
5/4/2004 21:45,24.7,1,56.8,1,24.7,1,24.7,1,18.2,1
5/4/2004 22:00,24.6,1,56.6,1,24.7,1,24.7,1,18.3,1
5/4/2004 22:15,24.6,1,56.7,1,24.7,1,24.7,1,17.2,1
5/4/2004 22:30,24.6,1,56.7,1,24.7,1,24.6,1,16.6,1
5/4/2004 22:45,24.6,1,57.2,1,24.7,1,24.6,1,16.7,1
5/4/2004 23:00,24.6,1,57,1,24.7,1,24.6,1,16.9,1
5/4/2004 23:15,24.6,1,56.9,1,24.6,1,24.6,1,17.2,1
5/4/2004 23:30,24.5,1,56.8,1,24.6,1,24.6,1,17.5,1
5/4/2004 23:45,24.5,1,56.8,1,24.6,1,24.6,1,17.6,1
5/5/2004 0:00,24.5,1,56.8,1,24.5,1,24.6,1,17.7,1
5/5/2004 0:15,24.4,1,56.7,1,24.5,1,24.6,1,17.8,1
5/5/2004 0:30,24.4,1,56.6,1,24.4,1,24.6,1,17.9,1
5/5/2004 0:45,24.3,1,56.7,1,24.4,1,24.6,1,18,1
5/5/2004 1:00,24.2,1,56.8,1,24.3,1,24.6,1,18.1,1
5/5/2004 1:15,24.2,1,56.9,1,24.3,1,24.6,1,18.2,1
5/5/2004 1:30,24.1,1,57,1,24.2,1,24.6,1,18.3,1
5/5/2004 1:45,24,1,57.1,1,24.2,1,24.6,1,18.4,1
5/5/2004 2:00,23.9,1,57,1,24.1,1,24.5,1,18.5,1
5/5/2004 2:15,23.8,1,57.2,1,24,1,24.5,1,18.6,1
5/5/2004 2:30,23.7,1,57.3,1,24,1,24.5,1,18.7,1
5/5/2004 2:45,23.7,1,57.4,1,23.9,1,24.5,1,18.8,1
5/5/2004 3:00,23.6,1,57.5,1,23.8,1,24.5,1,18.8,1
5/5/2004 3:15,23.5,1,57.4,1,23.8,1,24.4,1,18.9,1
5/5/2004 3:30,23.4,1,57.6,1,23.7,1,24.4,1,19,1
5/5/2004 3:45,23.4,1,57.7,1,23.6,1,24.4,1,19.1,1
5/5/2004 4:00,23.3,1,57.6,1,23.6,1,24.4,1,19.2,1
5/5/2004 4:15,23.2,1,57.5,1,23.5,1,24.3,1,19.2,1
5/5/2004 4:30,23.1,1,57.8,1,23.5,1,24.2,1,19.3,1
5/5/2004 4:45,22.9,1,58.1,1,23.4,1,24.2,1,19.4,1
5/5/2004 5:00,22.9,1,58,1,23.3,1,24.1,1,19.4,1
5/5/2004 5:15,22.8,1,58.1,1,23.3,1,24.1,1,19.5,1
5/5/2004 5:30,22.7,1,58.1,1,23.2,1,24,1,19.6,1
5/5/2004 5:45,22.6,1,58.1,1,23.1,1,24,1,19.6,1
5/5/2004 6:00,22.5,1,58.1,1,23.1,1,23.9,1,19.7,1
5/5/2004 6:15,22.4,1,58.3,1,23,1,23.9,1,19.7,1
5/5/2004 6:30,22.4,1,58.2,1,22.9,1,23.8,1,19.8,1
5/5/2004 6:45,22.3,1,58.2,1,22.9,1,23.7,1,19.8,1
5/5/2004 7:00,22.2,1,58.2,1,22.8,1,23.7,1,19.9,1
5/5/2004 7:15,22.1,1,58.2,1,22.7,1,23.6,1,19.9,1
5/5/2004 7:30,22,1,58.2,1,22.7,1,23.5,1,20,1
5/5/2004 7:45,22,1,58.2,1,22.6,1,23.5,1,20,1
5/5/2004 8:00,21.9,1,58.3,1,22.5,1,23.4,1,20.1,1
5/5/2004 8:15,21.8,1,58.3,1,22.5,1,23.4,1,20.1,1
5/5/2004 8:30,21.8,1,58.3,1,22.4,1,23.3,1,20.2,1
5/5/2004 8:45,21.8,1,58.7,1,22.4,1,23.3,1,18.3,1
5/5/2004 9:00,21.9,1,58,1,22.3,1,23.2,1,16.9,1
5/5/2004 9:15,22,1,58.7,1,22.4,1,23.1,1,16.6,1
5/5/2004 9:30,22,1,58.7,1,22.4,1,23,1,16.7,1
5/5/2004 9:45,22,1,58.5,1,22.5,1,23,1,16.8,1
5/5/2004 10:00,22,1,58.1,1,22.5,1,22.9,1,16.9,1
5/5/2004 10:15,22,1,57.8,1,22.5,1,22.9,1,17,1
5/5/2004 10:30,22,1,57.5,1,22.5,1,22.8,1,17.1,1
5/5/2004 10:45,22,1,57.4,1,22.5,1,22.8,1,17.2,1
5/5/2004 11:00,22,1,57.2,1,22.5,1,22.7,1,17.3,1
5/5/2004 11:15,22,1,57.1,1,22.5,1,22.7,1,18.1,1
5/5/2004 11:30,22.1,1,57.1,1,22.5,1,22.6,1,17.1,1
5/5/2004 11:45,22.1,1,59.3,1,22.5,1,22.6,1,16.9,1
5/5/2004 12:00,21.9,1,61,1,22.5,1,22.6,1,17,1
5/5/2004 12:15,21.8,1,62.1,1,22.3,1,22.5,1,17,1
5/5/2004 12:30,21.7,1,63.1,1,22.2,1,22.5,1,17.1,1
5/5/2004 12:45,21.6,1,63.6,1,22.2,1,22.5,1,17.2,1
5/5/2004 13:00,21.7,1,63.3,1,22.2,1,22.5,1,17.3,1
5/5/2004 13:15,21.7,1,63.9,1,22.1,1,22.4,1,17.5,1
5/5/2004 13:30,21.8,1,65,1,22.2,1,22.4,1,17.6,1
5/5/2004 13:45,21.8,1,64.8,1,22.2,1,22.4,1,17.7,1
5/5/2004 14:00,21.7,1,64.2,1,22.2,1,22.4,1,17.5,1
5/5/2004 14:15,21.7,1,64,1,22.1,1,22.3,1,17.6,1
5/5/2004 14:30,21.7,1,63.9,1,22.1,1,22.3,1,17.7,1
5/5/2004 14:45,21.6,1,63,1,22.1,1,22.3,1,17,1
5/5/2004 15:00,21.7,1,63.1,1,22.1,1,22.3,1,17.1,1
5/5/2004 15:15,21.7,1,62.4,1,22.1,1,22.2,1,17.2,1
5/5/2004 15:30,21.6,1,62.7,1,22,1,22.2,1,17.3,1
5/5/2004 15:45,21.6,1,62.5,1,21.9,1,22.2,1,17.3,1
5/5/2004 16:00,21.5,1,62.3,1,21.9,1,22.2,1,17.4,1
5/5/2004 16:15,21.5,1,61.7,1,21.9,1,22.1,1,17.6,1
5/5/2004 16:30,21.5,1,61.5,1,21.9,1,22.1,1,17.8,1
5/5/2004 16:45,21.5,1,61.3,1,21.9,1,22.1,1,17.2,1
5/5/2004 17:00,21.6,1,61.5,1,21.9,1,22,1,17.3,1
5/5/2004 17:15,21.6,1,62.8,1,21.9,1,22,1,17.4,1
5/5/2004 17:30,21.7,1,63.4,1,22,1,22,1,17.1,1
5/5/2004 17:45,21.6,1,62.2,1,21.9,1,22,1,17.2,1
5/5/2004 18:00,21.7,1,61.8,1,22,1,22,1,17.3,1
5/5/2004 18:15,21.7,1,61.4,1,22,1,22,1,17.3,1
5/5/2004 18:30,21.6,1,61,1,22,1,21.9,1,17.4,1
5/5/2004 18:45,21.6,1,60,1,22,1,21.9,1,17.5,1
5/5/2004 19:00,21.6,1,60.3,1,22,1,21.9,1,17.8,1
5/5/2004 19:15,21.7,1,60.1,1,22.1,1,21.8,1,17.6,1
5/5/2004 19:30,21.8,1,59.7,1,22.1,1,21.8,1,17.1,1
5/5/2004 19:45,21.7,1,59.7,1,22.1,1,21.8,1,17.2,1
5/5/2004 20:00,21.7,1,59.5,1,22.1,1,21.7,1,17.3,1
5/5/2004 20:15,21.5,1,59.4,1,22.1,1,21.7,1,17.1,1
5/5/2004 20:30,21.6,1,59.3,1,22,1,21.7,1,17,1
5/5/2004 20:45,21.6,1,59.8,1,22,1,21.7,1,17.1,1
5/5/2004 21:00,21.6,1,59.5,1,22,1,21.6,1,17.2,1
5/5/2004 21:15,21.6,1,59.3,1,22,1,21.6,1,17.2,1
5/5/2004 21:30,21.5,1,59.7,1,22,1,21.6,1,17.2,1
5/5/2004 21:45,21.5,1,59.8,1,22,1,21.6,1,17.3,1
5/5/2004 22:00,21.5,1,59.8,1,22,1,21.5,1,17.4,1
5/5/2004 22:15,21.5,1,59.8,1,22,1,21.5,1,17.4,1
5/5/2004 22:30,21.4,1,60.4,1,22,1,21.5,1,17.6,1
5/5/2004 22:45,21.5,1,60.7,1,21.9,1,21.5,1,17.8,1
5/5/2004 23:00,21.5,1,60,1,21.9,1,21.4,1,17.9,1
5/5/2004 23:15,21.6,1,60.1,1,22,1,21.4,1,17.9,1
5/5/2004 23:30,21.5,1,59.6,1,22,1,21.4,1,18,1
5/5/2004 23:45,21.5,1,59.4,1,21.9,1,21.4,1,17,1